{"data":{"norad_id":64950,"intl_designator":"2025-158U","name":"STARLINK-34586","alt_names":[],"object_type":"PAYLOAD","status":"ACTIVE","operator":null,"country":"US","launch_date":"2025-07-27","launch_site_code":"AFWTR","launch_vehicle":null,"mission":null,"orbit_class":"UNKNOWN","rcs_meters":null,"size_class":null,"mass_kg":null,"dimensions":null,"purposes":["comms"],"wikipedia_slug":null,"has_3d_model":false,"image_url":null,"decayed_at":null,"tle_current":{"epoch":"2026-05-25T02:45:14.667840Z","epoch_age_seconds":79225,"freshness":"FRESH","line1":"1 64950U 25158U   26145.11475310 -.00000103  00000+0 -30615-5 0  9990","line2":"2 64950  97.4534   9.0063 0001765 115.9125 244.2284 15.05649498 46859","mean_motion":15.05649498,"eccentricity":0.0001765,"inclination_deg":97.4534,"raan_deg":9.0063,"arg_perigee_deg":115.9125,"mean_anomaly_deg":244.2284,"bstar":-3.0615e-6,"rev_number":4685,"period_min":95.639788802958,"perigee_km":548.2899637038,"apogee_km":550.73542404574,"semimajor_km":6927.6496938748,"source":"CELESTRAK","updated_at":"2026-05-25T13:38:20.634810Z"}}}